| time (UTC) | temp F | wind direction | speed knots | gust knots | rain 1hr in | rain 24hr in | rain mn in | humidity % | barometer mb |
| 20260505024017 | 55 | 49 | 11.3 | 13.9 | 0.00 | 0.00 | 0.00 | 77 | |
| 20260505023517 | 54 | 49 | 9.6 | 11.3 | 0.00 | 0.00 | 0.00 | 78 | |
| 20260505023018 | 55 | 45 | 11.3 | 13.9 | 0.00 | 0.00 | 0.00 | 78 | |
| 20260505022516 | 55 | 49 | 9.6 | 11.3 | 0.00 | 0.00 | 0.00 | 72 | |
| 20260505022019 | 55 | 42 | 7.8 | 9.6 | 0.00 | 0.00 | 0.00 | 71 | |
| 20260505021517 | 55 | 50 | 9.6 | 9.6 | 0.00 | 0.00 | 0.00 | 72 | |
| 20260505021018 | 55 | 56 | 9.6 | 11.3 | 0.00 | 0.00 | 0.00 | 74 | |
| 20260505020517 | 55 | 56 | 9.6 | 11.3 | 0.00 | 0.00 | 0.00 | 70 | |
| 20260505020018 | 57 | 60 | 11.3 | 13.9 | 0.00 | 0.00 | 0.00 | 67 | |
| 20260505015517 | 57 | 64 | 11.3 | 13.9 | 0.00 | 0.00 | 0.00 | 65 | |
| 20260505015018 | 57 | 47 | 13.9 | 15.6 | 0.00 | 0.00 | 0.00 | 63 | |
| 20260505014517 | 57 | 49 | 13.9 | 13.9 | 0.00 | 0.00 | 0.00 | 64 | |
| 20260505014017 | 57 | 45 | 6.1 | 7.8 | 0.00 | 0.00 | 0.00 | 63 | |
| 20260505013516 | 57 | 170 | 1.7 | 3.5 | 0.00 | 0.00 | 0.00 | 64 | |
| 20260505013017 | 57 | 170 | 0.0 | 0.0 | 0.00 | 0.00 | 0.00 | 68 | |
| 20260505012518 | 57 | 170 | 1.7 | 1.7 | 0.00 | 0.00 | 0.00 | 72 | |
| 20260505012021 | 55 | 170 | 3.5 | 3.5 | 0.00 | 0.00 | 0.00 | 77 | |
| 20260505011518 | 55 | 193 | 6.1 | 6.1 | 0.00 | 0.00 | 0.00 | 83 | |
| 20260505011017 | 55 | 226 | 9.6 | 11.3 | 0.00 | 0.00 | 0.00 | 78 | |
| 20260505010517 | 55 | 226 | 9.6 | 11.3 | 0.00 | 0.00 | 0.00 | 81 | |
| 20260505010017 | 55 | 201 | 13.9 | 15.6 | 0.00 | 0.00 | 0.00 | 79 | |
| 20260505005518 | 55 | 191 | 11.3 | 15.6 | 0.00 | 0.00 | 0.00 | 78 | |
| 20260505005018 | 55 | 182 | 9.6 | 13.9 | 0.00 | 0.00 | 0.00 | 80 | |
| 20260505004518 | 55 | 187 | 7.8 | 11.3 | 0.00 | 0.00 | 0.00 | 81 | |
| 20260505004017 | 55 | 178 | 7.8 | 9.6 | 0.00 | 0.00 | 0.00 | 87 | |
| 20260505003517 | 54 | 162 | 7.8 | 11.3 | 0.00 | 0.00 | 0.00 | 95 | |
| 20260505003017 | 54 | 183 | 7.8 | 9.6 | 0.00 | 0.00 | 0.00 | 88 | |
| 20260505002517 | 54 | 185 | 6.1 | 7.8 | 0.00 | 0.00 | 0.00 | 83 | |
| 20260505002025 | 55 | 190 | 7.8 | 11.3 | 0.00 | 0.00 | 0.00 | 80 | |
| 20260505001518 | 55 | 194 | 6.1 | 11.3 | 0.00 | 0.00 | 0.00 | 80 | |
| 20260505001018 | 55 | 204 | 7.8 | 9.6 | 0.00 | 0.00 | 0.00 | 78 | |
| 20260505000518 | 55 | 169 | 6.1 | 7.8 | 0.00 | 0.00 | 0.00 | 77 | |
| 20260505000018 | 55 | 172 | 6.1 | 7.8 | 0.00 | 0.00 | 0.00 | 71 | |
| 20260504235517 | 57 | 133 | 7.8 | 9.6 | 0.00 | 0.00 | 0.00 | 66 | |
| 20260504235024 | 59 | 115 | 13.9 | 15.6 | 0.00 | 0.00 | 0.00 | 66 | |
| 20260504234517 | 59 | 112 | 11.3 | 15.6 | 0.00 | 0.00 | 0.00 | 65 | |
| 20260504234017 | 57 | 109 | 11.3 | 13.9 | 0.00 | 0.00 | 0.00 | 66 | |
| 20260504233518 | 57 | 107 | 11.3 | 13.9 | 0.00 | 0.00 | 0.00 | 63 | |
| 20260504233017 | 59 | 103 | 11.3 | 11.3 | 0.00 | 0.00 | 0.00 | 62 | |
| 20260504232517 | 59 | 103 | 9.6 | 11.3 | 0.00 | 0.00 | 0.00 | 59 | |
| 20260504232020 | 59 | 102 | 9.6 | 11.3 | 0.00 | 0.00 | 0.00 | 60 | |
| 20260504231524 | 59 | 98 | 9.6 | 9.6 | 0.00 | 0.00 | 0.00 | 59 | |
| 20260504231016 | 59 | 103 | 9.6 | 11.3 | 0.00 | 0.00 | 0.00 | 58 | |
| 20260504230517 | 59 | 100 | 9.6 | 9.6 | 0.00 | 0.00 | 0.00 | 59 | |
| 20260504230017 | 59 | 98 | 7.8 | 7.8 | 0.00 | 0.00 | 0.00 | 58 | |
| 20260504225517 | 59 | 99 | 9.6 | 9.6 | 0.00 | 0.00 | 0.00 | 58 | |
| 20260504225018 | 59 | 85 | 7.8 | 7.8 | 0.00 | 0.00 | 0.00 | 57 | |
| 20260504224518 | 59 | 85 | 7.8 | 9.6 | 0.00 | 0.00 | 0.00 | 55 | |
| 20260504224017 | 61 | 80 | 6.1 | 7.8 | 0.00 | 0.00 | 0.00 | 55 | |
| 20260504223522 | 61 | 69 | 6.1 | 6.1 | 0.00 | 0.00 | 0.00 | 55 | |
| 20260504223017 | 61 | 69 | 7.8 | 7.8 | 0.00 | 0.00 | 0.00 | 56 | |
| 20260504222516 | 59 | 69 | 7.8 | 7.8 | 0.00 | 0.00 | 0.00 | 56 | |
| 20260504222020 | 61 | 69 | 7.8 | 7.8 | 0.00 | 0.00 | 0.00 | 56 | |
| 20260504221518 | 61 | 69 | 6.1 | 6.1 | 0.00 | 0.00 | 0.00 | 55 | |
| 20260504220518 | 61 | 66 | 6.1 | 6.1 | 0.00 | 0.00 | 0.00 | 55 | |
| 20260504220018 | 61 | 66 | 6.1 | 6.1 | 0.00 | 0.00 | 0.00 | 54 | |
| 20260504215517 | 61 | 56 | 6.1 | 6.1 | 0.00 | 0.00 | 0.00 | 54 | |
| 20260504215018 | 61 | 52 | 6.1 | 6.1 | 0.00 | 0.00 | 0.00 | 54 | |
| 20260504214517 | 61 | 43 | 6.1 | 6.1 | 0.00 | 0.00 | 0.00 | 54 | |
| 20260504214017 | 61 | 44 | 6.1 | 6.1 | 0.00 | 0.00 | 0.00 | 54 | |
| 20260504213517 | 61 | 49 | 6.1 | 6.1 | 0.00 | 0.00 | 0.00 | 54 | |
| 20260504212019 | 61 | 76 | 3.5 | 3.5 | 0.00 | 0.00 | 0.00 | 54 | |
| 20260504211517 | 61 | 87 | 1.7 | 1.7 | 0.00 | 0.00 | 0.00 | 53 | |
| 20260504210518 | 61 | 87 | 1.7 | 1.7 | 0.00 | 0.00 | 0.00 | 51 | |
| 20260504205517 | 61 | 87 | 1.7 | 1.7 | 0.00 | 0.00 | 0.00 | 52 | |
| 20260504205017 | 61 | 87 | 1.7 | 1.7 | 0.00 | 0.00 | 0.00 | 53 | |
| 20260504204017 | 61 | 87 | 3.5 | 3.5 | 0.00 | 0.00 | 0.00 | 53 | |
| 20260504203517 | 61 | 87 | 3.5 | 3.5 | 0.00 | 0.00 | 0.00 | 51 | |
| 20260504203018 | 61 | 87 | 1.7 | 1.7 | 0.00 | 0.00 | 0.00 | 51 | |
| 20260504202517 | 61 | 87 | 1.7 | 1.7 | 0.00 | 0.00 | 0.00 | 52 | |
| 20260504202019 | 61 | 87 | 1.7 | 1.7 | 0.00 | 0.00 | 0.00 | 51 | |
| 20260504201518 | 61 | 87 | 1.7 | 1.7 | 0.00 | 0.00 | 0.00 | 52 | |
| 20260504200518 | 61 | 87 | 3.5 | 3.5 | 0.00 | 0.00 | 0.00 | 51 | |
| 20260504200017 | 61 | 87 | 1.7 | 1.7 | 0.00 | 0.00 | 0.00 | 53 | |
| 20260504195018 | 61 | 87 | 3.5 | 3.5 | 0.00 | 0.00 | 0.00 | 52 | |
| 20260504193518 | 61 | 87 | 1.7 | 1.7 | 0.00 | 0.00 | 0.00 | 51 | |
| 20260504193017 | 61 | 87 | 3.5 | 3.5 | 0.00 | 0.00 | 0.00 | 49 | |
| 20260504192517 | 61 | 277 | 0.0 | 3.5 | 0.00 | 0.00 | 0.00 | 48 | |
| 20260504192021 | 61 | 273 | 1.7 | 1.7 | 0.00 | 0.00 | 0.00 | 44 | |
| 20260504191017 | 61 | 273 | 0.0 | 0.0 | 0.00 | 0.00 | 0.00 | 43 | |
| 20260504185517 | 61 | 273 | 0.0 | 0.0 | 0.00 | 0.00 | 0.00 | 44 | |
| 20260504185018 | 61 | 273 | 0.0 | 0.0 | 0.00 | 0.00 | 0.00 | 45 | |
| 20260504184518 | 61 | 273 | 0.0 | 0.0 | 0.00 | 0.00 | 0.00 | 47 | |
| 20260504184017 | 61 | 273 | 0.0 | 0.0 | 0.00 | 0.00 | 0.00 | 49 | |
| 20260504183517 | 61 | 273 | 0.0 | 0.0 | 0.00 | 0.00 | 0.00 | 50 | |
| 20260504183017 | 61 | 273 | 0.0 | 0.0 | 0.00 | 0.00 | 0.00 | 47 | |
| 20260504182517 | 61 | 273 | 0.0 | 0.0 | 0.00 | 0.00 | 0.00 | 48 | |
| 20260504182022 | 61 | 273 | 0.0 | 0.0 | 0.00 | 0.00 | 0.00 | 49 | |
| 20260504181018 | 61 | 273 | 0.0 | 0.0 | 0.00 | 0.00 | 0.00 | 51 | |
| 20260504180522 | 61 | 273 | 0.0 | 0.0 | 0.00 | 0.00 | 0.00 | 50 | |
| 20260504180018 | 63 | 273 | 0.0 | 0.0 | 0.00 | 0.00 | 0.00 | 48 | |
| 20260504175517 | 63 | 273 | 1.7 | 1.7 | 0.00 | 0.00 | 0.00 | 47 | |
| 20260504175017 | 63 | 273 | 0.0 | 1.7 | 0.00 | 0.00 | 0.00 | 49 | |
| 20260504174518 | 63 | 273 | 0.0 | 0.0 | 0.00 | 0.00 | 0.00 | 51 | |
| 20260504174017 | 61 | 273 | 0.0 | 1.7 | 0.00 | 0.00 | 0.00 | 53 | |
| 20260504173518 | 63 | 273 | 0.0 | 0.0 | 0.00 | 0.00 | 0.00 | 53 | |
| 20260504170518 | 61 | 273 | 0.0 | 0.0 | 0.00 | 0.00 | 0.00 | 53 | |
| 20260504151017 | 64 | 256 | 1.7 | 3.5 | 0.00 | 0.00 | 0.00 | 50 | |
| 20260504150517 | 63 | 239 | 6.1 | 6.1 | 0.00 | 0.00 | 0.00 | 50 | |
| 20260504141017 | 64 | 213 | 1.7 | 3.5 | 0.00 | 0.00 | 0.00 | 50 | |
| 20260504140518 | 63 | 251 | 3.5 | 3.5 | 0.00 | 0.00 | 0.00 | 50 | |
| 20260504130518 | 63 | 192 | 1.7 | 1.7 | 0.00 | 0.00 | 0.00 | 50 | |
| 20260504110517 | 63 | 236 | 0.0 | 1.7 | 0.00 | 0.00 | 0.00 | 55 | |
| 20260504100518 | 61 | 119 | 0.0 | 1.7 | 0.00 | 0.00 | 0.00 | 58 | |
| 20260504081517 | 54 | 183 | 0.0 | 1.7 | 0.00 | 0.00 | 0.00 | 69 | |
| 20260504081018 | 52 | 183 | 3.5 | 3.5 | 0.00 | 0.00 | 0.00 | 68 | |
| 20260504050518 | 50 | 85 | 11.3 | 13.9 | 0.00 | 0.00 | 0.00 | 56 | |
| 20260504050018 | 50 | 84 | 11.3 | 13.9 | 0.00 | 0.00 | 0.00 | 57 | |
| 20260504045517 | 50 | 81 | 11.3 | 13.9 | 0.00 | 0.00 | 0.00 | 57 | |
| 20260504045017 | 50 | 76 | 13.9 | 13.9 | 0.00 | 0.00 | 0.00 | 57 | |
| 20260504044517 | 50 | 75 | 13.9 | 15.6 | 0.00 | 0.00 | 0.00 | 56 | |
| 20260504044018 | 50 | 75 | 13.9 | 13.9 | 0.00 | 0.00 | 0.00 | 56 | |
| 20260504043518 | 50 | 76 | 11.3 | 13.9 | 0.00 | 0.00 | 0.00 | 56 | |
| 20260504043017 | 50 | 76 | 13.9 | 15.6 | 0.00 | 0.00 | 0.00 | 56 | |
| 20260504042517 | 50 | 76 | 13.9 | 13.9 | 0.00 | 0.00 | 0.00 | 56 | |
| 20260504041518 | 50 | 78 | 13.9 | 13.9 | 0.00 | 0.00 | 0.00 | 55 | |
| 20260504041017 | 50 | 80 | 11.3 | 13.9 | 0.00 | 0.00 | 0.00 | 56 | |
| 20260504040517 | 50 | 80 | 11.3 | 13.9 | 0.00 | 0.00 | 0.00 | 55 | |
| 20260504040018 | 50 | 78 | 11.3 | 13.9 | 0.00 | 0.00 | 0.00 | 55 | |
| 20260504035516 | 50 | 76 | 11.3 | 13.9 | 0.00 | 0.00 | 0.00 | 55 | |
| 20260504035018 | 50 | 76 | 11.3 | 11.3 | 0.00 | 0.00 | 0.00 | 55 | |
| 20260504034518 | 50 | 79 | 11.3 | 11.3 | 0.00 | 0.00 | 0.00 | 55 | |
| 20260504034017 | 50 | 82 | 11.3 | 13.9 | 0.00 | 0.00 | 0.00 | 55 | |
| 20260504033518 | 50 | 82 | 11.3 | 11.3 | 0.00 | 0.00 | 0.00 | 55 | |
| 20260504033017 | 50 | 81 | 11.3 | 11.3 | 0.00 | 0.00 | 0.00 | 55 | |
| 20260504032517 | 50 | 81 | 11.3 | 13.9 | 0.00 | 0.00 | 0.00 | 55 | |
| 20260504032019 | 50 | 80 | 11.3 | 13.9 | 0.00 | 0.00 | 0.00 | 55 | |
| 20260504031517 | 50 | 85 | 11.3 | 13.9 | 0.00 | 0.00 | 0.00 | 55 | |
| 20260504031017 | 50 | 86 | 13.9 | 13.9 | 0.00 | 0.00 | 0.00 | 55 | |
| 20260504030517 | 50 | 88 | 13.9 | 13.9 | 0.00 | 0.00 | 0.00 | 55 | |
| 20260504030017 | 50 | 88 | 13.9 | 15.6 | 0.00 | 0.00 | 0.00 | 55 | |
| 20260504025517 | 50 | 88 | 13.9 | 15.6 | 0.00 | 0.00 | 0.00 | 54 | |
| 20260504025018 | 50 | 93 | 13.9 | 13.9 | 0.00 | 0.00 | 0.00 | 54 | |
| 20260504024517 | 50 | 91 | 11.3 | 13.9 | 0.00 | 0.00 | 0.00 | 54 |